Location: Sceptre
(50.8619°N, 109.2670°W)
Time: 07:17:25
(UTC+00:00)

CUTE 1.7 + AOD 2 - Visible Passes

Search period start: 25 June 2022 00:00
Search period end: 05 July 2022 00:00
Orbit: 591 x 607 km, 97.7° (Epoch: 24 June)

Date Brightness Start Highest point End Pass type
(mag) Time Alt. Az. Time Alt. Az. Time Alt. Az.
29 Jun ? 09:51:05 10° ENE 09:52:24 11° E 09:53:42 10° ESE visible
30 Jun ? 10:01:02 10° NE 10:03:21 14° E 10:05:39 10° ESE visible
01 Jul ? 10:11:21 10° NE 10:14:17 18° E 10:17:10 10° SE visible
02 Jul ? 10:21:50 10° NE 10:25:11 22° E 10:28:30 10° SE visible
